LiveATC.Net - Listen to live air traffic control over the Internet!


ICAO: KSEE  IATA: SEE   Airport: Gillespie Field Airport
City: San Diego/El Cajon   State/Province: California
Country: United States   Continent: North America
KSEE METAR Weather: KSEE 161355Z AUTO 00000KT 10SM CLR 04/02 A3016 RMK AO2
KSEE Flight Activity (FlightAware)
KSEE Airport Info   (iFlightPlanner)
KSEE VFR Sectional Chart   (iFlightPlanner) 
KSEE IFR Low Chart   (iFlightPlanner) 

KSEE Tower
Feed Status: UP   Listeners: 0
Listen in your browser - HTML5 player (in browser, HTML5)
Click here to listen with your own player (launches your MP3 player)
Archive Access: KSEE Tower
FacilityFrequency
Gillespie Tower120.700
Gillespie Tower123.800
Sponsored by: Fly the Wing Flight Training


NOTICE

Unauthorized use prohibited. See LiveATC.net Terms of Service


Airport/ARTCC Code
Frequency Search
(e.g., 124.400, 128.75)
Site-wide search
 


Browse Feeds
Top 50 Feeds
Coverage Map
Bad Weather Areas

LiveATC FAQ
Offer LiveATC feed
Contact LiveATC.net
Press Inquiries

LiveATC on iPhone
LiveATC on Android

Windows Phone
Windows 8/10

LiveATC Mobile
(Mobile browser)

ATC Audio Archives
Interesting Recordings

LiveATC Forums


Home Page
About LiveATC.net
Make a Donation
Terms of Use
Privacy Policy

Canadian Air Freqs

AIRMETs/SIGMETs

FAA Airport Status
Nat'l Airspace Status
Arrival Demand Charts


Server Software By:
Icecast.org
Liquidsoap